CW6726 Weather Reports


Display with metric or nautical units.
time (UTC)temp
F
wind
direction
speed
MPH
gust
MPH
rain 1hr
in
rain 24hr
in
rain mn
in
humidity
%
barometer
mb
20260510151105 57 27 12.0 16.0 0.00 0.00 0.00 65 1011.9
20260510150605 57 28 9.0 18.0 0.00 0.00 0.00 66 1011.9
20260510145605 57 26 12.0 24.0 0.00 0.00 0.00 66 1012.0
20260510145104 57 16 10.0 22.0 0.00 0.00 0.00 66 1012.1
20260510144605 57 30 8.0 13.0 0.00 0.00 0.00 67 1012.1
20260510144105 57 32 9.0 17.0 0.00 0.00 0.00 67 1012.2
20260510143605 57 14 8.0 14.0 0.00 0.00 0.00 67 1012.2
20260510143104 57 8 8.0 16.0 0.00 0.00 0.00 67 1012.4
20260510142105 57 24 8.0 14.0 0.00 0.00 0.00 67 1012.5
20260510141105 56 21 9.0 15.0 0.00 0.00 0.00 67 1012.5
20260510140605 57 25 9.0 16.0 0.00 0.00 0.00 67 1012.6
20260510135605 57 18 9.0 15.0 0.00 0.00 0.00 67 1012.7
20260510134605 58 32 8.0 15.0 0.00 0.00 0.00 66 1012.6
20260510132105 58 39 7.0 13.0 0.00 0.00 0.00 66 1012.8
20260510131604 58 19 11.0 20.0 0.00 0.00 0.00 66 1012.7
20260510130605 58 28 7.0 18.0 0.00 0.00 0.00 66 1012.8
20260510130105 58 32 11.0 20.0 0.00 0.00 0.00 66 1012.8
20260510123604 58 24 9.0 15.0 0.00 0.00 0.00 65 1012.8
20260510123104 58 28 7.0 14.0 0.00 0.00 0.00 64 1012.8
20260510121605 58 23 8.0 15.0 0.00 0.00 0.00 64 1013.0
20260510120605 58 25 6.0 12.0 0.00 0.00 0.00 64 1013.0
20260510120105 58 42 6.0 14.0 0.00 0.00 0.00 64 1013.0
20260510115606 58 15 5.0 13.0 0.00 0.00 0.00 65 1013.1
20260510115104 58 33 8.0 17.0 0.00 0.00 0.00 65 1013.1
20260510113605 59 37 9.0 16.0 0.00 0.00 0.00 63 1013.1
20260510113105 59 41 5.0 14.0 0.00 0.00 0.00 63 1013.2
20260510112104 59 6 7.0 14.0 0.00 0.00 0.00 62 1013.3
20260510111104 60 42 6.0 12.0 0.00 0.00 0.00 62 1013.4
20260510110605 59 42 7.0 20.0 0.00 0.00 0.00 62 1013.5
20260510105605 58 19 9.0 17.0 0.00 0.00 0.00 62 1013.5
20260510102105 57 33 8.0 15.0 0.00 0.00 0.00 66 1013.8
20260510101604 56 35 9.0 17.0 0.00 0.00 0.00 66 1013.8
20260510100105 56 18 9.0 15.0 0.00 0.00 0.00 67 1013.7
20260510095605 56 41 9.0 20.0 0.00 0.00 0.00 67 1013.7
20260510095105 56 24 9.0 17.0 0.00 0.00 0.00 68 1013.7
20260510094105 56 30 7.0 16.0 0.00 0.00 0.00 68 1013.7
20260510093604 56 30 10.0 18.0 0.00 0.00 0.00 67 1013.7
20260510093105 56 28 8.0 14.0 0.00 0.00 0.00 69 1013.7
20260510092605 55 21 11.0 23.0 0.00 0.00 0.00 70 1013.8
20260510091604 54 41 10.0 20.0 0.00 0.00 0.00 71 1013.8
20260510091105 54 41 9.0 20.0 0.00 0.00 0.00 71 1013.9
20260510090605 54 29 10.0 18.0 0.00 0.00 0.00 71 1013.9
20260510084605 53 24 8.0 18.0 0.00 0.00 0.00 74 1013.9
20260510082605 53 28 7.0 13.0 0.00 0.00 0.00 76 1014.1
20260510082104 53 28 9.0 18.0 0.00 0.00 0.00 76 1014.1
20260510081605 52 21 8.0 21.0 0.00 0.00 0.00 77 1014.1
20260510080605 52 22 8.0 14.0 0.00 0.00 0.00 78 1014.2
20260510080105 52 15 6.0 14.0 0.00 0.00 0.00 78 1014.2
20260510075105 51 38 7.0 18.0 0.00 0.00 0.00 79 1014.2
20260510074605 51 21 10.0 18.0 0.00 0.00 0.00 79 1014.2
20260510074104 51 23 6.0 15.0 0.00 0.00 0.00 79 1014.2
20260510073105 51 27 7.0 14.0 0.00 0.00 0.00 80 1014.2
20260510072605 50 24 7.0 16.0 0.00 0.00 0.00 80 1014.2
20260510071105 50 31 6.0 13.0 0.00 0.00 0.00 80 1014.2
20260510070605 50 25 8.0 14.0 0.00 0.00 0.00 80 1014.2
20260510065605 50 29 8.0 14.0 0.00 0.00 0.00 80 1014.2
20260510064605 50 41 6.0 13.0 0.00 0.00 0.00 81 1014.2
20260510063605 50 22 5.0 14.0 0.00 0.00 0.00 81 1014.1
20260510063105 50 34 8.0 16.0 0.00 0.00 0.00 81 1014.1
20260510062605 50 37 5.0 16.0 0.00 0.00 0.00 81 1014.1
20260510061605 50 29 6.0 15.0 0.00 0.00 0.00 82 1014.1
20260510061105 50 48 5.0 10.0 0.00 0.00 0.00 82 1014.1
20260510060605 50 25 7.0 12.0 0.00 0.00 0.00 82 1014.1
20260510055104 50 27 5.0 12.0 0.00 0.00 0.00 82 1014.1
20260510053605 49 28 6.0 10.0 0.00 0.00 0.00 82 1014.0
20260510053104 49 20 5.0 10.0 0.00 0.00 0.00 82 1014.0
20260510052104 49 30 5.0 9.0 0.00 0.00 0.00 82 1014.1
20260510051105 49 26 5.0 10.0 0.00 0.00 0.00 82 1014.1
20260510050606 49 30 5.0 12.0 0.00 0.00 0.00 82 1014.1
20260510050105 49 31 5.0 9.0 0.00 0.00 0.00 82 1014.1
20260510045604 49 23 5.0 10.0 0.00 0.00 0.00 81 1014.1
20260510044105 49 37 5.0 12.0 0.00 0.00 0.00 81 1014.1
20260510043604 50 24 7.0 12.0 0.00 0.00 0.00 81 1014.0
20260510042105 50 34 6.0 12.0 0.00 0.00 0.00 80 1014.1
20260510041605 50 47 6.0 10.0 0.00 0.00 0.00 80 1014.1
20260510041105 50 18 5.0 12.0 0.00 0.00 0.00 80 1014.1
20260510035605 50 15 7.0 12.0 0.00 0.00 0.00 80 1014.1
20260510035105 50 24 6.0 12.0 0.00 0.00 0.00 80 1014.1
20260510033106 51 42 5.0 9.0 0.00 0.00 0.00 80 1014.2
20260510032605 51 13 3.0 8.0 0.00 0.00 0.00 80 1014.2
20260510032105 51 42 7.0 13.0 0.00 0.00 0.00 80 1014.4
20260510031105 51 29 7.0 14.0 0.00 0.00 0.00 79 1014.4
20260510030105 51 14 6.0 12.0 0.00 0.00 0.00 79 1014.4
20260510025105 51 10 5.0 10.0 0.00 0.00 0.00 78 1014.3
20260510024105 52 19 3.0 10.0 0.00 0.00 0.00 77 1014.3
20260510023605 52 22 5.0 9.0 0.00 0.00 0.00 77 1014.4
20260510022105 52 24 7.0 13.0 0.00 0.00 0.00 76 1014.3
20260510021605 52 12 7.0 12.0 0.00 0.00 0.00 76 1014.3
20260510020604 52 31 6.0 15.0 0.00 0.00 0.00 75 1014.2
20260510015606 52 22 5.0 12.0 0.00 0.00 0.00 73 1014.1
20260510015104 53 31 7.0 13.0 0.00 0.00 0.00 71 1014.1
20260510014605 53 41 7.0 13.0 0.00 0.00 0.00 70 1014.1
20260510013105 53 32 7.0 14.0 0.00 0.00 0.00 67 1014.1
20260510012605 53 24 5.0 14.0 0.00 0.00 0.00 66 1014.1
20260510012105 53 30 7.0 13.0 0.00 0.00 0.00 66 1014.1
20260510010605 54 24 7.0 14.0 0.00 0.00 0.00 65 1014.1
20260510004605 54 24 6.0 12.0 0.00 0.00 0.00 65 1014.1
20260510004104 54 19 6.0 12.0 0.00 0.00 0.00 64 1014.1
20260510002604 54 31 4.0 7.0 0.00 0.00 0.00 63 1014.1
20260510002105 54 32 5.0 8.0 0.00 0.00 0.00 62 1014.2
20260510001605 54 38 4.0 9.0 0.00 0.00 0.00 62 1014.1
20260510000605 54 19 6.0 9.0 0.00 0.00 0.00 61 1014.1
20260510000105 54 30 3.0 6.0 0.00 0.00 0.00 61 1014.1
20260509235105 55 30 3.0 7.0 0.00 0.00 0.00 60 1014.2
20260509234605 55 30 3.0 7.0 0.00 0.00 0.00 60 1014.2
20260509234105 55 31 4.0 8.0 0.00 0.00 0.00 59 1014.2
20260509233604 55 33 5.0 9.0 0.00 0.00 0.00 59 1014.2
20260509233105 55 23 5.0 10.0 0.00 0.00 0.00 58 1014.2
20260509232605 55 30 5.0 7.0 0.00 0.00 0.00 58 1014.2
20260509232105 56 30 4.0 7.0 0.00 0.00 0.00 57 1014.2
20260509225605 56 32 3.0 8.0 0.00 0.00 0.00 56 1014.1
20260509225104 56 30 3.0 9.0 0.00 0.00 0.00 55 1014.0
20260509224605 56 22 4.0 8.0 0.00 0.00 0.00 55 1014.1
20260509222105 57 27 3.0 8.0 0.00 0.00 0.00 54 1014.0
20260509221605 57 56 4.0 7.0 0.00 0.00 0.00 54 1014.0
20260509220605 57 72 2.0 5.0 0.00 0.00 0.00 54 1014.1
20260509220105 57 74 2.0 9.0 0.00 0.00 0.00 54 1014.1
20260509214605 56 41 0.0 3.0 0.00 0.00 0.00 60 1014.1
20260509212105 55 46 0.0 2.0 0.00 0.00 0.00 66 1014.1
20260509210605 56 46 0.0 2.0 0.00 0.00 0.00 64 1013.8
20260509204605 58 46 0.0 0.0 0.00 0.00 0.00 61 1013.6
20260509204105 59 46 0.0 1.0 0.00 0.00 0.00 60 1013.6
20260509203105 60 46 1.0 3.0 0.00 0.00 0.00 59 1013.4
20260509202105 61 47 1.0 3.0 0.00 0.00 0.00 58 1013.3
20260509201605 61 47 1.0 3.0 0.00 0.00 0.00 56 1013.2
20260509201105 62 47 1.0 3.0 0.00 0.00 0.00 55 1013.2
20260509200605 62 47 1.0 3.0 0.00 0.00 0.00 54 1013.1
20260509200105 62 47 0.0 5.0 0.00 0.00 0.00 54 1013.1
20260509195604 63 47 1.0 5.0 0.00 0.00 0.00 53 1013.1
20260509193104 64 60 1.0 6.0 0.00 0.00 0.00 52 1013.0
20260509192104 65 70 2.0 7.0 0.00 0.00 0.00 51 1012.8
20260509191104 65 31 0.0 3.0 0.00 0.00 0.00 51 1012.9
20260509190606 65 31 1.0 3.0 0.00 0.00 0.00 51 1012.8
20260509185604 66 31 3.0 6.0 0.00 0.00 0.00 49 1012.7
20260509184105 67 28 3.0 8.0 0.00 0.00 0.00 48 1012.6
20260509182605 67 30 5.0 9.0 0.00 0.00 0.00 47 1012.6
20260509182105 68 38 2.0 3.0 0.00 0.00 0.00 48 1012.5
20260509181105 68 40 2.0 7.0 0.00 0.00 0.00 47 1012.5
20260509180604 68 42 2.0 8.0 0.00 0.00 0.00 47 1012.5
20260509180106 68 40 2.0 3.0 0.00 0.00 0.00 47 1012.4
20260509175105 69 24 2.0 8.0 0.00 0.00 0.00 46 1012.4
20260509174605 69 26 3.0 8.0 0.00 0.00 0.00 46 1012.3
20260509174105 69 28 3.0 9.0 0.00 0.00 0.00 45 1012.3
20260509173605 69 26 1.0 5.0 0.00 0.00 0.00 45 1012.2
20260509173105 69 26 2.0 5.0 0.00 0.00 0.00 44 1012.2
20260509172604 69 25 1.0 8.0 0.00 0.00 0.00 45 1012.2
20260509171605 70 19 2.0 6.0 0.00 0.00 0.00 44 1012.2
20260509171107 70 18 3.0 8.0 0.00 0.00 0.00 43 1012.2
20260509165105 70 18 4.0 7.0 0.00 0.00 0.00 45 1012.4
20260509162105 70 63 1.0 3.0 0.00 0.00 0.00 47 1012.4
20260509161605 70 63 2.0 5.0 0.00 0.00 0.00 47 1012.5
20260509161104 70 68 2.0 3.0 0.00 0.00 0.00 46 1012.4
20260509155605 71 27 1.0 7.0 0.00 0.00 0.00 46 1012.4
20260509155104 71 18 3.0 8.0 0.00 0.00 0.00 46 1012.5
20260509153604 72 16 5.0 8.0 0.00 0.00 0.00 45 1012.5
20260509153105 71 339 1.0 7.0 0.00 0.00 0.00 46 1012.6
20260509152605 71 28 5.0 9.0 0.00 0.00 0.00 45 1012.7